Latest Weather Observations for Ocean Reef

IDW60801

Issued at 8:33 pm WST Wednesday 22 February 2017 (issued every 30 minutes, with the page automatically refreshed every 10 minutes)

About weather observations | Map of weather stations | Latest weather observations for WA | Other Formats
Station Details ID: 009214 Name: OCEAN REEF Lat: -31.76 Lon: 115.73 Height: 10.0 m
Data from the previous 72 hours. | See also: Recent months at Ocean Reef
Date/Time
WST
Temp
°C
App
Temp
°C
Dew
Point
°C
Rel
Hum
%
Delta-T
°C
Wind Press
QNH
hPa
Press
MSL
hPa
Rain since
9am
mm
Dir  Spd
km/h
Gust
km/h
Spd
kts
Gust
kts
22/08:30pm - - - - - S 35 41 19 22 - - -
22/08:00pm - - - - - S 33 39 18 21 - - -
22/07:30pm - - - - - S 32 37 17 20 - - -
22/07:00pm - - - - - SSW 33 41 18 22 - - -
22/06:30pm - - - - - SSW 35 41 19 22 - - -
22/06:00pm - - - - - SSW 35 39 19 21 - - -
22/05:30pm - - - - - SSW 33 39 18 21 - - -
22/05:00pm - - - - - SSW 35 39 19 21 - - -
22/04:30pm - - - - - SSW 35 41 19 22 - - -
22/04:00pm - - - - - SSW 35 41 19 22 - - -
22/03:30pm - - - - - SSW 35 41 19 22 - - -
22/03:00pm - - - - - SSW 33 39 18 21 - - -
22/02:30pm - - - - - SSW 33 37 18 20 - - -
22/02:00pm - - - - - SSW 30 35 16 19 - - -
22/01:30pm - - - - - SSW 28 33 15 18 - - -
22/01:00pm - - - - - SSW 28 32 15 17 - - -
22/12:30pm - - - - - SW 24 30 13 16 - - -
22/12:00pm - - - - - SW 22 28 12 15 - - -
22/11:30am - - - - - SW 20 26 11 14 - - -
22/11:00am - - - - - SSW 20 26 11 14 - - -
22/10:30am - - - - - S 13 20 7 11 - - -
22/10:00am - - - - - SE 15 28 8 15 - - -
22/09:30am - - - - - SE 15 22 8 12 - - -
22/09:00am - - - - - E 13 19 7 10 - - -
22/08:30am - - - - - E 17 24 9 13 - - -
22/08:00am - - - - - E 15 20 8 11 - - -
22/07:30am - - - - - E 13 20 7 11 - - -
22/07:00am - - - - - E 13 15 7 8 - - -
22/06:30am - - - - - E 15 17 8 9 - - -
22/06:00am - - - - - E 15 17 8 9 - - -
22/05:30am - - - - - E 15 17 8 9 - - -
22/05:00am - - - - - E 15 17 8 9 - - -
22/04:30am - - - - - E 15 17 8 9 - - -
22/04:00am - - - - - ESE 15 20 8 11 - - -
22/03:30am - - - - - ESE 15 19 8 10 - - -
22/03:00am - - - - - SE 17 19 9 10 - - -
22/02:30am - - - - - SE 17 20 9 11 - - -
22/02:00am - - - - - SSE 13 17 7 9 - - -
22/01:30am - - - - - SE 15 19 8 10 - - -
22/01:00am - - - - - SSE 13 17 7 9 - - -
22/12:30am - - - - - SE 15 22 8 12 - - -
22/12:00am - - - - - SE 15 19 8 10 - - -
 
Date/Time
WST
Temp
°C
App
Temp
°C
Dew
Point
°C
Rel
Hum
%
Delta-T
°C
Wind Press
QNH
hPa
Press
MSL
hPa
Rain since
9am
mm
Dir  Spd
km/h
Gust
km/h
Spd
kts
Gust
kts
21/11:30pm - - - - - SSE 17 24 9 13 - - -
21/11:00pm - - - - - SE 13 19 7 10 - - -
21/10:30pm - - - - - S 32 39 17 21 - - -
21/10:00pm - - - - - S 32 37 17 20 - - -
21/09:30pm - - - - - SSW 33 43 18 23 - - -
21/09:00pm - - - - - SSW 33 39 18 21 - - -
21/08:30pm - - - - - SSW 37 44 20 24 - - -
21/08:00pm - - - - - SSW 33 43 18 23 - - -
21/07:30pm - - - - - S 39 48 21 26 - - -
21/07:00pm - - - - - SSW 39 48 21 26 - - -
21/06:30pm - - - - - SSW 35 48 19 26 - - -
21/06:00pm - - - - - SSW 37 48 20 26 - - -
21/05:30pm - - - - - SSW 37 48 20 26 - - -
21/05:00pm - - - - - SSW 37 46 20 25 - - -
21/04:30pm - - - - - SSW 37 48 20 26 - - -
21/04:00pm - - - - - SSW 39 54 21 29 - - -
21/03:30pm - - - - - SSW 39 50 21 27 - - -
21/03:00pm - - - - - SSW 37 46 20 25 - - -
21/02:30pm - - - - - SSW 39 50 21 27 - - -
21/02:00pm - - - - - SSW 37 44 20 24 - - -
21/01:30pm - - - - - SSW 37 46 20 25 - - -
21/01:00pm - - - - - SSW 37 46 20 25 - - -
21/12:30pm - - - - - SSW 37 46 20 25 - - -
21/12:00pm - - - - - SW 33 44 18 24 - - -
21/11:30am - - - - - SSW 39 48 21 26 - - -
21/11:00am - - - - - SSW 41 52 22 28 - - -
21/10:30am - - - - - SW 43 52 23 28 - - -
21/10:00am - - - - - SW 44 54 24 29 - - -
21/09:30am - - - - - SSW 48 59 26 32 - - -
21/09:00am - - - - - SSW 46 59 25 32 - - -
21/08:30am - - - - - SW 46 56 25 30 - - -
21/08:00am - - - - - SW 39 50 21 27 - - -
21/07:30am - - - - - SW 39 50 21 27 - - -
21/07:00am - - - - - SW 43 56 23 30 - - -
21/06:30am - - - - - WSW 39 50 21 27 - - -
21/06:28am - - - - - WSW 41 50 22 27 - - -
21/06:00am - - - - - W 41 50 22 27 - - -
21/05:30am - - - - - W 37 50 20 27 - - -
21/05:00am - - - - - W 35 43 19 23 - - -
21/04:30am - - - - - W 32 37 17 20 - - -
21/04:00am - - - - - W 32 37 17 20 - - -
21/03:30am - - - - - WSW 33 37 18 20 - - -
21/03:00am - - - - - WSW 32 39 17 21 - - -
21/02:30am - - - - - WSW 32 37 17 20 - - -
21/02:00am - - - - - WSW 37 44 20 24 - - -
21/01:30am - - - - - WSW 33 41 18 22 - - -
21/01:00am - - - - - WSW 28 35 15 19 - - -
21/12:30am - - - - - SW 32 41 17 22 - - -
21/12:00am - - - - - WSW 32 37 17 20 - - -
 
Date/Time
WST
Temp
°C
App
Temp
°C
Dew
Point
°C
Rel
Hum
%
Delta-T
°C
Wind Press
QNH
hPa
Press
MSL
hPa
Rain since
9am
mm
Dir  Spd
km/h
Gust
km/h
Spd
kts
Gust
kts
20/11:30pm - - - - - SW 30 37 16 20 - - -
20/11:00pm - - - - - SW 30 37 16 20 - - -
20/10:30pm - - - - - SW 26 32 14 17 - - -
20/10:00pm - - - - - SW 32 39 17 21 - - -
20/09:30pm - - - - - SW 35 41 19 22 - - -
20/09:00pm - - - - - SSW 33 39 18 21 - - -
20/08:30pm - - - - - SSW 33 41 18 22 - - -
20/08:00pm - - - - - SSW 32 39 17 21 - - -
20/07:30pm - - - - - SSW 32 37 17 20 - - -
20/07:00pm - - - - - SSW 33 41 18 22 - - -
20/06:30pm - - - - - SW 35 41 19 22 - - -
20/06:00pm - - - - - SW 33 39 18 21 - - -
20/05:30pm - - - - - SW 35 41 19 22 - - -
20/05:00pm - - - - - SSW 33 44 18 24 - - -
20/04:30pm - - - - - SSW 32 39 17 21 - - -
20/04:00pm - - - - - SSW 30 37 16 20 - - -
20/03:30pm - - - - - SSW 30 33 16 18 - - -
20/03:00pm - - - - - SSW 32 37 17 20 - - -
20/02:30pm - - - - - SSW 33 37 18 20 - - -
20/02:00pm - - - - - SSW 33 39 18 21 - - -
20/01:30pm - - - - - SSW 30 37 16 20 - - -
20/01:00pm - - - - - SSW 28 33 15 18 - - -
20/12:30pm - - - - - SSW 32 37 17 20 - - -
20/12:00pm - - - - - SSW 32 35 17 19 - - -
20/11:30am - - - - - SSW 32 39 17 21 - - -
20/11:00am - - - - - SSW 35 41 19 22 - - -
20/10:30am - - - - - SSW 33 39 18 21 - - -
20/10:00am - - - - - SSW 32 35 17 19 - - -
20/09:30am - - - - - SSW 30 35 16 19 - - -
20/09:00am - - - - - S 32 39 17 21 - - -
20/08:30am - - - - - SSW 32 39 17 21 - - -
20/08:00am - - - - - SSW 33 39 18 21 - - -
20/07:30am - - - - - SSW 35 39 19 21 - - -
20/07:00am - - - - - SSW 37 46 20 25 - - -
20/06:30am - - - - - SSW 37 44 20 24 - - -
20/06:00am - - - - - SSW 35 41 19 22 - - -
20/05:30am - - - - - SSW 35 39 19 21 - - -
20/05:00am - - - - - SSW 28 33 15 18 - - -
20/04:30am - - - - - SSW 26 32 14 17 - - -
20/04:00am - - - - - SSW 26 30 14 16 - - -
20/03:30am - - - - - SSW 22 28 12 15 - - -
20/03:00am - - - - - S 22 30 12 16 - - -
20/02:30am - - - - - SSW 28 32 15 17 - - -
20/02:00am - - - - - SSW 28 32 15 17 - - -
20/01:30am - - - - - SSW 28 33 15 18 - - -
20/01:00am - - - - - SSW 28 33 15 18 - - -
20/12:30am - - - - - SSW 24 30 13 16 - - -
20/12:00am - - - - - SSW 19 24 10 13 - - -
 
Date/Time
WST
Temp
°C
App
Temp
°C
Dew
Point
°C
Rel
Hum
%
Delta-T
°C
Wind Press
QNH
hPa
Press
MSL
hPa
Rain since
9am
mm
Dir  Spd
km/h
Gust
km/h
Spd
kts
Gust
kts
19/11:30pm - - - - - SSW 22 26 12 14 - - -
19/11:00pm - - - - - SSW 28 30 15 16 - - -
19/10:30pm - - - - - SSW 28 33 15 18 - - -
19/10:00pm - - - - - SSW 26 32 14 17 - - -
19/09:30pm - - - - - SSW 24 30 13 16 - - -
19/09:00pm - - - - - SSW 20 28 11 15 - - -

Other Formats:

Comma delimited format used in spreadsheet applications
http://www.bom.gov.au/fwo/IDW60801/IDW60801.94607.axf

JavaScript Object Notation format (JSON) in row-major order
http://www.bom.gov.au/fwo/IDW60801/IDW60801.94607.json